Probability
12 11 11 10 10 9 7 7 7 7 7 10 11 11 9 6 4 4 5 6 6 6 6 6 4 3 2 1 0 0 1 2 2 1 0 0 0 0 0 0 0 0 0
11 11 10 10 10 9 8 7 7 6 7 8 9 10 10 7 4 3 4 6 6 6 6 5 4 3 2 1 0 0 0 1 2 1 0 0 0 0 0 0 0 0 0
10 10 10 10 10 9 8 7 6 5 5 6 7 8 8 6 4 3 4 5 6 6 5 5 4 2 1 0 0 0 0 1 2 1 0 0 0 0 0 0 0 0 0
8 9 9 9 10 10 9 7 6 5 4 5 6 7 6 4 3 4 4 4 5 6 5 4 2 1 0 0 0 0 0 1 1 1 0 0 0 0 0 0 0 0 0
5 6 8 9 9 10 9 7 6 5 4 4 6 6 4 3 4 4 4 4 5 5 4 2 1 0 0 0 0 0 0 0 0 0 0 0 0 0 0 0 0 0 0
2 3 5 7 9 10 9 8 7 6 4 4 5 6 5 4 4 4 5 6 6 4 2 1 0 0 0 0 0 0 0 0 0 0 0 0 0 0 0 0 0 0 0
1 1 2 5 7 8 8 8 7 6 4 3 4 6 6 5 4 4 6 6 7 5 2 0 0 0 0 0 0 0 0 0 0 0 0 0 0 0 0 0 0 0 0
0 0 1 3 5 6 7 7 6 6 4 3 4 5 6 5 4 4 5 6 6 4 1 0 0 1 1 1 1 0 0 0 0 0 0 0 0 0 0 0 0 0 0
0 0 0 1 4 5 6 6 6 5 4 3 3 4 4 4 3 3 4 3 3 2 0 0 1 2 2 2 1 0 0 0 0 0 0 0 0 0 0 0 0 0 0
0 0 0 0 2 5 6 6 6 5 4 3 3 3 3 3 3 2 2 1 1 0 0 1 2 3 3 1 1 0 0 0 0 0 0 0 0 0 0 0 0 0 0
0 0 0 0 1 3 4 5 5 5 4 3 3 3 3 2 1 1 1 0 0 0 0 1 2 3 3 1 0 0 0 0 0 0 0 0 0 0 0 0 0 0 0
0 0 0 0 0 1 2 3 4 4 3 3 4 3 3 1 0 0 0 0 0 0 0 1 2 3 2 1 0 0 0 0 0 0 0 0 0 0 0 0 0 0 0
0 0 0 0 0 0 1 1 2 2 2 3 4 4 3 1 0 0 0 0 0 0 0 1 3 3 1 1 0 0 0 0 0 0 0 0 0 0 0 0 0 0 0
0 0 0 0 0 0 0 0 1 1 1 1 3 4 2 1 0 0 0 0 0 0 1 2 3 2 1 0 0 0 0 0 0 0 0 0 0 0 0 0 0 0 0
0 0 0 0 0 0 0 0 0 0 0 0 1 2 1 0 0 0 0 0 0 0 1 2 2 1 0 0 0 0 0 0 0 0 0 0 0 0 0 0 0 0 0
0 0 0 0 0 0 0 0 0 0 0 0 0 0 0 0 0 0 0 0 0 0 0 1 1 0 0 0 0 0 0 0 0 0 0 0 0 0 0 0 0 0 0
0 0 0 0 0 0 0 0 0 0 0 0 0 0 0 1 1 1 0 0 0 0 0 0 0 0 0 0 0 0 0 0 0 0 0 0 0 0 0 0 0 0 0
0 0 0 0 0 0 0 0 0 0 0 0 0 0 1 2 2 1 0 0 0 0 0 0 0 0 0 0 0 0 0 0 0 0 0 0 0 0 0 0 0 0 0
0 0 0 0 0 0 0 0 0 0 0 0 0 0 1 2 2 1 0 0 0 0 0 0 0 0 0 0 0 0 0 0 0 0 0 0 0 0 0 0 0 0 0
0 0 0 0 0 0 0 0 0 0 0 0 0 0 1 1 1 0 0 0 0 0 0 0 0 0 0 0 0 0 0 0 0 0 0 0 0 0 0 0 0 0 0
0 0 0 0 0 0 0 0 0 0 0 0 0 0 0 0 0 0 0 0 0 0 0 0 0 0 0 0 0 0 0 0 0 0 0 0 0 0 0 0 0 0 0
0 0 0 0 0 0 0 0 0 0 0 0 0 0 0 0 0 0 0 0 0 0 0 0 0 0 0 0 0 0 0 0 0 0 0 0 0 0 0 0 0 0 0
0 0 0 0 0 0 0 0 0 0 0 0 0 1 0 0 0 0 0 0 0 0 0 0 0 0 0 0 0 0 0 0 0 0 0 0 0 0 0 0 0 0 0
0 0 0 0 0 0 0 0 0 0 0 0 0 0 0 0 0 0 0 0 0 0 0 0 0 0 0 0 0 0 0 0 0 0 0 0 0 0 0 0 0 0 0
0 0 0 0 0 0 0 0 0 0 0 0 0 0 0 0 0 0 0 0 0 0 0 0 0 0 0 0 0 0 0 0 0 0 0 0 0 0 0 0 0 0 0
0 0 0 0 0 0 0 0 0 0 0 0 0 0 0 0 0 0 0 0 0 0 0 0 0 0 0 0 0 0 0 0 0 0 0 0 0 0 0 0 0 0 0
Wind_Speed
4 3 2 1 1 2 2 2 2 2 1 2 2 2 2 2 1 1 2 3 3 4 4 4 4 4 5 5 5 4 5 4 3 3 3 2 2 2 1 1 2 2 2
4 3 2 1 1 2 3 3 3 3 2 2 2 3 2 2 2 1 1 2 3 3 4 5 4 4 5 6 6 5 3 3 3 3 4 2 0 0 1 1 1 1 1
3 3 2 2 2 2 3 3 3 3 3 2 1 1 1 1 1 1 1 1 2 3 3 4 4 4 5 6 6 6 5 4 2 2 4 4 3 1 0 1 1 1 1
3 3 2 2 3 3 2 2 3 3 3 3 3 3 3 3 2 2 2 2 3 3 2 3 4 4 4 6 6 5 4 6 5 2 1 2 3 4 1 1 1 1 1
3 3 3 3 3 3 2 2 2 2 2 3 4 4 3 2 2 2 2 2 3 3 2 3 3 4 4 5 6 6 5 4 5 4 2 2 1 2 3 2 2 1 1
4 4 3 3 3 3 2 2 2 3 2 3 4 4 4 4 4 3 3 2 2 2 2 3 3 3 4 5 5 6 7 5 4 4 3 3 3 3 3 3 3 2 2
5 5 5 4 4 3 3 2 2 3 3 3 3 4 5 5 6 4 4 3 2 2 3 3 3 2 3 4 5 5 5 5 6 6 4 3 3 3 3 3 2 1 1
5 6 6 4 3 3 3 3 3 3 3 3 3 3 4 4 4 4 4 4 4 3 4 4 3 3 3 3 5 4 4 4 6 6 5 3 3 3 3 3 3 2 1
6 6 7 6 4 4 4 3 3 3 3 3 3 3 4 4 4 4 4 3 3 3 4 4 4 3 3 3 4 4 4 4 4 5 5 4 3 3 2 3 3 4 3
7 7 6 6 5 4 4 3 3 3 3 3 3 3 4 4 4 4 4 4 3 4 4 4 4 3 3 3 3 3 3 4 4 4 5 4 3 3 3 3 2 2 3
6 6 6 6 5 4 4 3 3 2 2 3 2 2 3 3 3 4 4 4 4 4 4 4 4 4 4 3 3 3 3 5 5 4 5 6 5 4 3 3 3 2 2
6 6 6 5 5 5 4 4 4 3 3 3 2 2 3 3 3 3 4 4 4 4 4 4 4 4 4 4 4 5 4 6 6 6 6 6 5 5 4 3 3 3 3
7 6 6 6 5 5 5 5 4 4 3 3 2 2 2 3 4 4 4 4 4 3 4 4 4 4 4 4 4 4 4 5 6 6 7 6 6 6 4 4 4 3 2
6 6 6 6 6 6 6 5 5 4 4 3 2 3 2 3 4 4 4 4 4 4 4 4 4 4 4 4 4 4 4 4 4 6 6 6 7 7 6 5 5 4 3
6 6 6 6 6 6 6 6 5 5 4 3 3 3 3 2 2 3 3 3 3 4 4 4 3 3 3 4 5 5 5 5 4 4 5 5 6 7 6 5 5 5 4
7 7 6 6 6 6 7 7 6 5 4 3 3 3 2 2 2 2 3 3 3 3 3 3 4 4 3 4 6 5 5 5 5 4 4 4 5 6 6 6 6 6 6
7 7 7 6 7 7 7 6 7 6 5 4 3 3 2 2 1 1 1 2 2 2 2 3 3 3 4 5 6 7 5 5 4 4 4 3 3 4 4 4 5 5 6
7 7 7 7 6 6 6 6 5 5 5 4 4 3 2 1 1 1 1 1 1 1 1 2 2 2 2 4 5 6 4 4 4 4 4 4 4 3 4 3 3 3 3
6 6 7 6 6 6 6 6 5 5 4 4 4 4 3 2 1 1 1 1 1 1 1 1 1 2 2 4 5 5 4 3 4 4 4 5 4 5 4 4 3 2 2
6 6 6 6 6 6 5 5 5 4 5 5 5 4 3 2 2 1 1 1 1 2 1 1 1 2 2 3 4 5 3 4 3 3 3 5 5 5 5 4 4 4 3
6 6 5 5 5 6 5 4 4 5 5 6 5 4 2 2 2 1 1 1 1 1 1 1 1 1 2 3 4 5 3 4 4 3 3 3 5 5 5 4 4 5 3
7 7 6 6 5 5 5 5 5 6 6 5 5 4 2 1 1 1 1 1 1 1 1 1 1 1 1 2 3 5 4 3 3 3 3 3 5 5 5 4 4 4 3
7 6 6 6 6 5 4 5 6 6 6 5 5 4 3 2 1 1 1 1 1 1 1 1 1 1 1 1 3 4 4 3 2 2 3 3 3 3 3 4 4 3 3
6 5 5 6 7 6 5 5 6 6 5 5 4 4 3 2 2 1 1 1 1 1 1 2 2 1 1 1 1 3 3 3 2 2 3 3 3 2 2 3 3 2 3
5 5 5 5 7 6 6 6 6 5 5 4 4 4 3 2 2 1 0 1 1 2 2 2 2 2 2 3 3 2 2 3 3 3 2 1 2 2 2 2 2 2 2
5 5 5 6 6 6 6 6 6 5 4 4 4 3 2 2 1 1 2 3 1 2 2 2 2 2 2 2 2 2 2 2 4 2 2 2 3 3 3 3 2 2 2
Wind_Direction
274 280 279 258 239 243 235 214 211 228 217 191 189 185 188 188 190 201 188 171 173 168 167 167 167 166 163 164 157 145 140 131 128 114 102 68 72 91 89 94 93 81 83
308 306 308 290 255 245 244 224 213 216 221 219 226 206 186 186 194 198 185 172 164 171 172 169 175 173 164 159 161 151 153 149 149 141 133 124 64 60 94 98 106 106 100
305 305 308 293 279 268 252 243 233 231 231 214 202 189 135 139 167 187 187 184 168 173 178 177 175 175 172 171 171 168 161 164 162 151 151 154 186 180 246 160 140 162 139
316 307 308 307 294 278 266 249 238 236 235 203 187 183 183 186 206 205 196 186 171 176 176 179 186 177 181 177 177 176 169 163 169 171 137 140 146 149 164 223 200 195 192
310 300 289 283 292 291 277 258 242 246 228 206 195 196 197 188 177 184 180 192 177 168 173 185 192 183 184 186 177 174 172 174 173 167 159 123 100 120 146 187 206 215 223
319 310 300 307 311 319 315 285 258 270 243 206 196 203 198 186 174 181 187 201 187 178 180 188 191 192 189 190 185 182 179 182 178 169 167 161 157 163 156 174 192 208 233
336 328 322 315 312 320 311 286 269 270 255 223 210 211 202 193 189 190 192 195 194 200 197 194 192 195 200 194 186 179 184 186 185 182 184 183 172 154 150 153 171 191 237
336 332 328 317 304 303 299 285 266 267 252 233 225 221 204 199 201 194 194 202 202 203 202 199 192 194 195 194 190 184 186 191 188 184 182 182 179 166 162 157 154 157 217
330 330 332 330 319 305 291 275 258 260 255 245 229 228 208 196 202 200 199 205 206 198 198 199 193 192 190 193 186 193 190 191 191 186 186 187 185 178 173 163 164 163 189
331 335 331 325 318 305 301 309 281 260 260 255 237 235 213 201 199 194 200 203 210 199 197 198 196 193 193 193 188 191 192 194 199 190 186 192 187 180 176 178 179 178 181
323 322 319 319 323 331 329 327 313 288 282 269 260 260 223 206 194 200 206 205 210 199 201 201 195 193 191 191 196 198 195 200 193 189 193 198 188 184 184 182 181 184 179
319 320 321 332 342 341 333 327 319 302 285 281 281 263 230 206 203 209 214 207 207 203 202 198 193 196 194 191 197 199 208 201 194 195 195 200 191 191 188 188 196 194 188
333 338 338 340 343 342 336 329 319 319 316 307 300 281 254 213 211 214 213 207 201 202 206 195 194 197 199 197 195 199 214 202 199 200 201 200 192 196 196 195 199 197 191
331 336 334 335 339 337 336 333 329 326 322 319 312 286 273 243 220 212 206 204 199 197 205 203 196 196 197 200 196 199 207 198 198 203 204 202 199 201 197 198 201 195 189
330 331 329 329 331 334 333 331 327 325 318 314 294 280 269 258 226 210 206 204 206 207 204 195 190 190 195 199 194 197 197 194 196 200 206 206 203 206 201 199 197 192 194
320 321 321 323 324 324 322 322 319 318 318 310 292 289 281 265 234 213 202 198 202 193 187 195 189 189 200 205 203 196 193 192 192 199 205 207 202 205 207 210 206 199 199
313 315 314 313 314 315 314 312 310 313 318 314 310 305 296 279 260 233 187 177 185 182 184 185 180 191 205 205 205 202 191 187 190 196 197 205 211 204 200 210 214 216 220
310 311 312 312 312 312 312 310 314 315 313 316 318 312 305 297 276 231 198 182 168 183 187 180 185 190 213 209 206 199 190 185 191 196 196 196 201 205 196 191 203 217 221
302 303 306 305 308 311 313 318 318 316 314 311 310 310 305 295 262 234 225 217 183 190 205 204 188 188 219 218 208 194 185 187 191 197 198 198 200 205 200 186 190 213 237
307 307 313 315 315 318 320 315 313 316 314 310 304 298 286 273 257 244 231 228 204 197 191 196 207 205 222 230 211 196 182 182 186 191 198 206 206 204 201 194 191 207 227
319 320 320 317 314 321 326 320 320 314 309 310 307 303 288 263 250 244 223 223 217 178 175 200 222 220 231 232 212 203 192 185 185 191 195 200 202 207 210 210 203 211 210
325 327 325 320 322 327 325 321 321 317 320 319 314 313 309 291 253 200 212 200 175 177 206 203 230 231 238 234 218 211 210 196 185 194 191 194 197 206 210 212 201 197 190
320 323 321 320 326 330 328 321 318 324 324 325 322 322 320 309 285 213 190 183 171 173 213 214 227 259 260 232 219 211 209 203 191 183 186 191 190 188 191 193 196 191 180
315 319 323 324 327 332 331 319 319 324 325 321 322 326 331 329 325 298 216 186 178 191 213 224 233 245 248 244 220 193 189 186 179 160 161 170 174 191 200 192 193 193 191
314 318 317 315 317 326 327 325 328 331 327 321 323 328 328 328 332 331 288 216 213 227 227 226 219 222 237 247 246 222 199 190 181 158 140 153 175 192 194 185 188 189 182
309 314 314 313 315 323 324 328 331 331 327 321 324 325 327 325 323 333 357 2 351 328 295 290 269 261 268 276 258 254 234 205 179 159 169 191 197 199 197 195 198 199 193